Time,TemperatureF,DewpointF,PressureIn,WindDirection,WindDirectionDegrees,WindSpeedMPH,WindSpeedGustMPH,Humidity,HourlyPrecipIn,Conditions,Clouds,dailyrainin,SolarRadiationWatts/m^2,SoftwareType,DateUTC
2013-08-09 00:00:00,57.1,54.5,30.00,West,272,8.0,8.0,91,0.00,,,0.00,0,Wunderground v.1.15,2013-08-09 07:00:00,
2013-08-09 00:05:00,57.0,54.4,30.00,WSW,249,8.0,8.0,91,0.00,,,0.00,0,Wunderground v.1.15,2013-08-09 07:05:00,
2013-08-09 00:10:00,57.2,54.9,29.99,WSW,245,6.0,6.0,92,0.00,,,0.00,0,Wunderground v.1.15,2013-08-09 07:10:00,
2013-08-09 00:20:00,57.2,54.9,29.99,SW,225,6.0,11.0,92,0.00,,,0.00,0,Wunderground v.1.15,2013-08-09 07:20:00,
2013-08-09 00:25:00,57.1,54.8,29.99,West,259,8.0,11.0,92,0.00,,,0.00,0,Wunderground v.1.15,2013-08-09 07:25:00,
2013-08-09 00:35:00,56.8,54.5,30.00,SW,222,8.0,11.0,92,0.00,,,0.00,0,Wunderground v.1.15,2013-08-09 07:35:00,
2013-08-09 00:40:00,56.8,54.8,30.00,SW,218,8.0,9.0,93,0.00,,,0.00,0,Wunderground v.1.15,2013-08-09 07:40:00,
2013-08-09 00:45:00,56.4,54.4,30.00,SSW,208,9.0,9.0,93,0.00,,,0.00,0,Wunderground v.1.15,2013-08-09 07:45:00,
2013-08-09 00:50:00,56.4,54.4,29.99,SW,228,7.0,8.0,93,0.00,,,0.00,0,Wunderground v.1.15,2013-08-09 07:50:00,
2013-08-09 00:55:00,56.2,54.2,29.99,SSW,213,7.0,10.0,93,0.00,,,0.00,0,Wunderground v.1.15,2013-08-09 07:55:00,
2013-08-09 01:00:00,56.1,54.1,29.99,SSW,202,9.0,9.0,93,0.00,,,0.00,0,Wunderground v.1.15,2013-08-09 08:00:00,
2013-08-09 01:10:00,55.7,53.7,29.99,SW,228,9.0,9.0,93,0.00,,,0.00,0,Wunderground v.1.15,2013-08-09 08:10:00,
2013-08-09 01:15:00,56.1,54.4,29.99,WSW,237,7.0,9.0,94,0.00,,,0.00,0,Wunderground v.1.15,2013-08-09 08:15:00,
2013-08-09 01:25:00,55.8,53.8,29.99,WSW,245,9.0,9.0,93,0.00,,,0.00,0,Wunderground v.1.15,2013-08-09 08:25:00,
2013-08-09 01:35:00,55.7,53.7,29.99,SW,234,6.0,9.0,93,0.00,,,0.00,0,Wunderground v.1.15,2013-08-09 08:35:00,
2013-08-09 01:40:00,55.8,53.8,29.99,SSW,213,6.0,6.0,93,0.00,,,0.00,0,Wunderground v.1.15,2013-08-09 08:40:00,
2013-08-09 01:50:00,55.9,53.9,29.99,SSW,197,5.0,7.0,93,0.00,,,0.00,0,Wunderground v.1.15,2013-08-09 08:50:00,
2013-08-09 01:55:00,55.9,53.9,29.99,SW,235,5.0,7.0,93,0.00,,,0.00,0,Wunderground v.1.15,2013-08-09 08:55:00,
2013-08-09 02:05:00,55.9,53.9,29.99,WSW,246,3.0,4.0,93,0.00,,,0.00,0,Wunderground v.1.15,2013-08-09 09:05:00,
2013-08-09 02:15:00,56.1,53.8,29.99,WSW,253,4.0,6.0,92,0.00,,,0.00,0,Wunderground v.1.15,2013-08-09 09:15:00,
2013-08-09 02:25:00,56.6,54.6,29.99,SW,235,3.0,4.0,93,0.00,,,0.00,0,Wunderground v.1.15,2013-08-09 09:25:00,
2013-08-09 02:30:00,56.7,54.4,29.98,SW,235,3.0,5.0,92,0.00,,,0.00,0,Wunderground v.1.15,2013-08-09 09:30:00,
2013-08-09 02:35:00,56.8,54.5,29.98,SW,233,3.0,5.0,92,0.00,,,0.00,0,Wunderground v.1.15,2013-08-09 09:35:00,
2013-08-09 02:45:00,56.9,54.6,29.98,SW,222,4.0,5.0,92,0.00,,,0.00,0,Wunderground v.1.15,2013-08-09 09:45:00,
2013-08-09 02:55:00,56.6,54.0,29.98,WSW,248,5.0,6.0,91,0.00,,,0.00,0,Wunderground v.1.15,2013-08-09 09:55:00,
2013-08-09 03:00:00,56.8,54.5,29.98,SW,228,4.0,4.0,92,0.00,,,0.00,0,Wunderground v.1.15,2013-08-09 10:00:00,
2013-08-09 03:10:00,56.9,54.3,29.98,WSW,244,4.0,4.0,91,0.00,,,0.00,0,Wunderground v.1.15,2013-08-09 10:10:00,
2013-08-09 03:15:00,56.7,54.1,29.98,West,264,5.0,5.0,91,0.00,,,0.00,0,Wunderground v.1.15,2013-08-09 10:15:00,
2013-08-09 03:20:00,56.8,54.2,29.97,West,276,5.0,5.0,91,0.00,,,0.00,0,Wunderground v.1.15,2013-08-09 10:20:00,
2013-08-09 03:30:00,56.9,54.6,29.97,West,272,5.0,5.0,92,0.00,,,0.00,0,Wunderground v.1.15,2013-08-09 10:30:00,
2013-08-09 03:40:00,56.8,54.5,29.97,WSW,249,9.0,9.0,92,0.00,,,0.00,0,Wunderground v.1.15,2013-08-09 10:40:00,
2013-08-09 03:45:00,56.9,54.6,29.98,West,261,9.0,9.0,92,0.00,,,0.00,0,Wunderground v.1.15,2013-08-09 10:45:00,
2013-08-09 03:50:00,56.8,54.5,29.98,WSW,254,8.0,8.0,92,0.00,,,0.00,0,Wunderground v.1.15,2013-08-09 10:50:00,
2013-08-09 04:00:00,56.8,54.8,29.97,West,262,6.0,8.0,93,0.00,,,0.00,0,Wunderground v.1.15,2013-08-09 11:00:00,
2013-08-09 04:10:00,56.8,54.8,29.97,WSW,254,5.0,5.0,93,0.00,,,0.00,0,Wunderground v.1.15,2013-08-09 11:10:00,
2013-08-09 04:15:00,56.9,54.9,29.97,WSW,248,5.0,5.0,93,0.00,,,0.00,0,Wunderground v.1.15,2013-08-09 11:15:00,
2013-08-09 04:25:00,56.8,54.8,29.97,West,267,8.0,8.0,93,0.00,,,0.00,0,Wunderground v.1.15,2013-08-09 11:25:00,
2013-08-09 04:30:00,56.7,54.7,29.97,WSW,246,9.0,9.0,93,0.00,,,0.00,0,Wunderground v.1.15,2013-08-09 11:30:00,
2013-08-09 04:40:00,56.7,54.7,29.97,West,267,9.0,10.0,93,0.00,,,0.00,0,Wunderground v.1.15,2013-08-09 11:40:00,
2013-08-09 04:50:00,56.7,54.4,29.96,West,271,8.0,8.0,92,0.00,,,0.00,0,Wunderground v.1.15,2013-08-09 11:50:00,
2013-08-09 04:55:00,56.8,54.5,29.96,West,278,6.0,8.0,92,0.00,,,0.00,0,Wunderground v.1.15,2013-08-09 11:55:00,
2013-08-09 05:05:00,56.8,54.5,29.96,West,270,6.0,6.0,92,0.00,,,0.00,0,Wunderground v.1.15,2013-08-09 12:05:00,
2013-08-09 05:10:00,56.9,54.6,29.96,WNW,299,6.0,6.0,92,0.00,,,0.00,0,Wunderground v.1.15,2013-08-09 12:10:00,
2013-08-09 05:20:00,56.8,54.5,29.96,West,268,6.0,6.0,92,0.00,,,0.00,0,Wunderground v.1.15,2013-08-09 12:20:00,
2013-08-09 05:25:00,56.9,54.6,29.96,West,269,5.0,6.0,92,0.00,,,0.00,0,Wunderground v.1.15,2013-08-09 12:25:00,
2013-08-09 05:35:00,56.8,54.5,29.96,West,269,6.0,6.0,92,0.00,,,0.00,0,Wunderground v.1.15,2013-08-09 12:35:00,
2013-08-09 05:40:00,56.7,54.4,29.96,West,274,6.0,7.0,92,0.00,,,0.00,0,Wunderground v.1.15,2013-08-09 12:40:00,
2013-08-09 05:50:00,56.5,54.2,29.96,West,270,6.0,8.0,92,0.00,,,0.00,0,Wunderground v.1.15,2013-08-09 12:50:00,
2013-08-09 05:55:00,56.4,54.1,29.97,West,264,7.0,8.0,92,0.00,,,0.00,0,Wunderground v.1.15,2013-08-09 12:55:00,
2013-08-09 06:05:00,56.2,53.9,29.97,West,259,6.0,7.0,92,0.00,,,0.00,0,Wunderground v.1.15,2013-08-09 13:05:00,
2013-08-09 06:15:00,56.2,53.9,29.97,WSW,251,6.0,6.0,92,0.00,,,0.00,0,Wunderground v.1.15,2013-08-09 13:15:00,
2013-08-09 06:20:00,56.3,54.0,29.97,WSW,253,6.0,6.0,92,0.00,,,0.00,0,Wunderground v.1.15,2013-08-09 13:20:00,
2013-08-09 06:30:00,56.3,54.0,29.97,WSW,241,5.0,7.0,92,0.00,,,0.00,5,Wunderground v.1.15,2013-08-09 13:30:00,
2013-08-09 06:35:00,56.4,54.1,29.97,WSW,241,6.0,7.0,92,0.00,,,0.00,9,Wunderground v.1.15,2013-08-09 13:35:00,
2013-08-09 06:45:00,56.3,54.0,29.98,WSW,243,5.0,7.0,92,0.00,,,0.00,16,Wunderground v.1.15,2013-08-09 13:45:00,
2013-08-09 06:50:00,56.6,54.3,29.98,WSW,245,5.0,7.0,92,0.00,,,0.00,21,Wunderground v.1.15,2013-08-09 13:50:00,
2013-08-09 06:55:00,56.5,54.2,29.98,WSW,258,5.0,10.0,92,0.00,,,0.00,23,Wunderground v.1.15,2013-08-09 13:55:00,
2013-08-09 07:05:00,56.5,54.2,29.98,West,268,6.0,8.0,92,0.00,,,0.00,37,Wunderground v.1.15,2013-08-09 14:05:00,
2013-08-09 07:10:00,56.3,54.0,29.98,WSW,248,7.0,7.0,92,0.00,,,0.00,54,Wunderground v.1.15,2013-08-09 14:10:00,
2013-08-09 07:20:00,56.6,54.3,29.98,WSW,245,6.0,6.0,92,0.00,,,0.00,54,Wunderground v.1.15,2013-08-09 14:20:00,
2013-08-09 07:30:00,56.8,54.5,29.98,WSW,244,5.0,6.0,92,0.00,,,0.00,54,Wunderground v.1.15,2013-08-09 14:30:00,
2013-08-09 07:35:00,56.7,54.4,29.98,WSW,256,6.0,8.0,92,0.00,,,0.00,72,Wunderground v.1.15,2013-08-09 14:35:00,
2013-08-09 07:45:00,56.8,54.5,29.98,WSW,248,6.0,9.0,92,0.00,,,0.00,81,Wunderground v.1.15,2013-08-09 14:45:00,
2013-08-09 07:50:00,56.9,54.6,29.99,SSW,213,7.0,7.0,92,0.00,,,0.00,70,Wunderground v.1.15,2013-08-09 14:50:00,
2013-08-09 08:00:00,56.8,54.5,29.99,SW,218,6.0,8.0,92,0.00,,,0.00,77,Wunderground v.1.15,2013-08-09 15:00:00,
2013-08-09 08:10:00,56.8,54.5,29.99,SSW,213,6.0,6.0,92,0.00,,,0.00,91,Wunderground v.1.15,2013-08-09 15:10:00,
2013-08-09 08:15:00,57.0,54.7,29.99,SW,228,6.0,9.0,92,0.00,,,0.00,105,Wunderground v.1.15,2013-08-09 15:15:00,
2013-08-09 08:25:00,57.1,54.8,29.99,SSW,213,7.0,10.0,92,0.00,,,0.00,116,Wunderground v.1.15,2013-08-09 15:25:00,
2013-08-09 08:30:00,57.1,55.1,29.99,SW,232,8.0,8.0,93,0.00,,,0.00,88,Wunderground v.1.15,2013-08-09 15:30:00,
2013-08-09 08:35:00,57.1,54.8,29.99,SSW,202,8.0,8.0,92,0.00,,,0.00,114,Wunderground v.1.15,2013-08-09 15:35:00,
2013-08-09 08:45:00,57.0,54.7,29.99,SSW,213,9.0,14.0,92,0.00,,,0.00,142,Wunderground v.1.15,2013-08-09 15:45:00,
2013-08-09 08:55:00,57.1,54.8,29.99,West,261,10.0,12.0,92,0.00,,,0.00,142,Wunderground v.1.15,2013-08-09 15:55:00,
2013-08-09 09:00:00,56.9,54.6,29.99,SW,222,9.0,9.0,92,0.00,,,0.00,137,Wunderground v.1.15,2013-08-09 16:00:00,
2013-08-09 09:05:00,56.8,54.5,29.99,SW,228,8.0,9.0,92,0.00,,,0.00,149,Wunderground v.1.15,2013-08-09 16:05:00,
2013-08-09 09:15:00,57.1,54.8,29.99,SSW,213,9.0,10.0,92,0.00,,,0.00,200,Wunderground v.1.15,2013-08-09 16:15:00,
2013-08-09 09:20:00,57.3,55.0,29.99,SSW,213,8.0,8.0,92,0.00,,,0.00,207,Wunderground v.1.15,2013-08-09 16:20:00,
2013-08-09 09:30:00,57.7,55.4,29.99,SW,222,6.0,8.0,92,0.00,,,0.00,197,Wunderground v.1.15,2013-08-09 16:30:00,
2013-08-09 09:40:00,57.9,55.3,29.99,SSW,195,7.0,12.0,91,0.00,,,0.00,253,Wunderground v.1.15,2013-08-09 16:40:00,
2013-08-09 09:45:00,58.0,55.4,29.99,SW,232,8.0,12.0,91,0.00,,,0.00,301,Wunderground v.1.15,2013-08-09 16:45:00,
2013-08-09 09:50:00,58.0,55.4,29.99,SW,224,8.0,9.0,91,0.00,,,0.00,278,Wunderground v.1.15,2013-08-09 16:50:00,
2013-08-09 10:00:00,58.1,55.8,29.99,WSW,239,7.0,10.0,92,0.00,,,0.00,279,Wunderground v.1.15,2013-08-09 17:00:00,
2013-08-09 10:10:00,58.4,55.8,29.99,SW,234,8.0,11.0,91,0.00,,,0.00,318,Wunderground v.1.15,2013-08-09 17:10:00,
2013-08-09 10:15:00,58.4,55.8,29.99,SSW,213,9.0,11.0,91,0.00,,,0.00,520,Wunderground v.1.15,2013-08-09 17:15:00,
2013-08-09 10:25:00,58.3,55.7,29.99,SW,223,10.0,10.0,91,0.00,,,0.00,297,Wunderground v.1.15,2013-08-09 17:25:00,
2013-08-09 10:30:00,58.4,55.8,29.99,SW,226,10.0,10.0,91,0.00,,,0.00,265,Wunderground v.1.15,2013-08-09 17:30:00,
2013-08-09 10:40:00,58.6,56.0,29.99,WSW,245,7.0,14.0,91,0.00,,,0.00,359,Wunderground v.1.15,2013-08-09 17:40:00,
2013-08-09 10:50:00,59.1,56.5,29.99,SW,218,10.0,13.0,91,0.00,,,0.00,504,Wunderground v.1.15,2013-08-09 17:50:00,
2013-08-09 10:55:00,59.2,56.3,29.99,SSW,213,10.0,13.0,90,0.00,,,0.00,452,Wunderground v.1.15,2013-08-09 17:55:00,
2013-08-09 11:05:00,59.0,56.1,29.99,SSW,199,11.0,12.0,90,0.00,,,0.00,404,Wunderground v.1.15,2013-08-09 18:05:00,
2013-08-09 11:10:00,58.9,56.0,29.99,SW,218,10.0,10.0,90,0.00,,,0.00,334,Wunderground v.1.15,2013-08-09 18:10:00,
2013-08-09 11:20:00,59.9,57.0,29.99,SW,228,9.0,9.0,90,0.00,,,0.00,663,Wunderground v.1.15,2013-08-09 18:20:00,
2013-08-09 11:25:00,60.5,57.2,29.99,WSW,241,9.0,9.0,89,0.00,,,0.00,613,Wunderground v.1.15,2013-08-09 18:25:00,
2013-08-09 11:35:00,60.5,57.2,29.99,SW,218,9.0,10.0,89,0.00,,,0.00,422,Wunderground v.1.15,2013-08-09 18:35:00,
2013-08-09 11:45:00,60.6,57.0,29.99,SW,228,9.0,15.0,88,0.00,,,0.00,629,Wunderground v.1.15,2013-08-09 18:45:00,
2013-08-09 11:50:00,60.5,57.2,29.99,SSW,203,11.0,11.0,89,0.00,,,0.00,726,Wunderground v.1.15,2013-08-09 18:50:00,
2013-08-09 12:00:00,60.4,56.8,29.99,SSW,213,11.0,11.0,88,0.00,,,0.00,835,Wunderground v.1.15,2013-08-09 19:00:00,
2013-08-09 12:05:00,60.8,57.2,29.99,SW,218,10.0,11.0,88,0.00,,,0.00,842,Wunderground v.1.15,2013-08-09 19:05:00,
2013-08-09 12:15:00,61.2,57.6,29.99,SSW,213,11.0,12.0,88,0.00,,,0.00,847,Wunderground v.1.15,2013-08-09 19:15:00,
2013-08-09 12:20:00,61.6,57.7,29.99,SW,226,10.0,11.0,87,0.00,,,0.00,854,Wunderground v.1.15,2013-08-09 19:20:00,
2013-08-09 12:30:00,61.9,58.0,29.99,SW,230,11.0,11.0,87,0.00,,,0.00,861,Wunderground v.1.15,2013-08-09 19:30:00,
2013-08-09 12:35:00,62.0,58.1,29.99,SW,218,10.0,11.0,87,0.00,,,0.00,860,Wunderground v.1.15,2013-08-09 19:35:00,
2013-08-09 12:45:00,62.1,58.2,29.99,SW,224,10.0,13.0,87,0.00,,,0.00,875,Wunderground v.1.15,2013-08-09 19:45:00,
2013-08-09 12:50:00,62.3,58.4,29.99,SSW,213,10.0,10.0,87,0.00,,,0.00,875,Wunderground v.1.15,2013-08-09 19:50:00,
2013-08-09 13:00:00,62.0,57.8,29.98,SW,232,9.0,9.0,86,0.00,,,0.00,884,Wunderground v.1.15,2013-08-09 20:00:00,
2013-08-09 13:05:00,61.8,57.6,29.98,WSW,245,9.0,9.0,86,0.00,,,0.00,889,Wunderground v.1.15,2013-08-09 20:05:00,
2013-08-09 13:15:00,62.8,58.5,29.98,West,259,7.0,11.0,86,0.00,,,0.00,877,Wunderground v.1.15,2013-08-09 20:15:00,
2013-08-09 13:20:00,62.9,58.0,29.98,WSW,253,7.0,13.0,84,0.00,,,0.00,888,Wunderground v.1.15,2013-08-09 20:20:00,
2013-08-09 13:30:00,63.0,58.7,29.98,West,259,9.0,9.0,86,0.00,,,0.00,882,Wunderground v.1.15,2013-08-09 20:30:00,
2013-08-09 13:40:00,63.6,58.7,29.98,WSW,252,8.0,13.0,84,0.00,,,0.00,886,Wunderground v.1.15,2013-08-09 20:40:00,
2013-08-09 13:45:00,62.8,58.2,29.98,SW,229,9.0,13.0,85,0.00,,,0.00,884,Wunderground v.1.15,2013-08-09 20:45:00,
2013-08-09 13:55:00,62.9,58.3,29.98,West,266,9.0,12.0,85,0.00,,,0.00,884,Wunderground v.1.15,2013-08-09 20:55:00,
2013-08-09 14:00:00,63.3,58.4,29.98,WSW,253,9.0,9.0,84,0.00,,,0.00,886,Wunderground v.1.15,2013-08-09 21:00:00,
2013-08-09 14:10:00,63.4,58.5,29.97,WSW,249,9.0,12.0,84,0.00,,,0.00,882,Wunderground v.1.15,2013-08-09 21:10:00,
2013-08-09 14:15:00,63.8,58.9,29.97,West,269,9.0,12.0,84,0.00,,,0.00,879,Wunderground v.1.15,2013-08-09 21:15:00,
2013-08-09 14:20:00,64.2,58.9,29.97,WSW,251,8.0,11.0,83,0.00,,,0.00,874,Wunderground v.1.15,2013-08-09 21:20:00,
2013-08-09 14:30:00,64.5,58.9,29.97,SW,231,8.0,9.0,82,0.00,,,0.00,867,Wunderground v.1.15,2013-08-09 21:30:00,
2013-08-09 14:35:00,64.7,59.1,29.97,West,264,8.0,9.0,82,0.00,,,0.00,858,Wunderground v.1.15,2013-08-09 21:35:00,
2013-08-09 14:45:00,64.5,58.9,29.97,WSW,256,8.0,8.0,82,0.00,,,0.00,853,Wunderground v.1.15,2013-08-09 21:45:00,
2013-08-09 14:50:00,64.8,59.2,29.97,WSW,241,7.0,8.0,82,0.00,,,0.00,847,Wunderground v.1.15,2013-08-09 21:50:00,
2013-08-09 15:00:00,63.9,58.6,29.97,WSW,245,9.0,12.0,83,0.00,,,0.00,830,Wunderground v.1.15,2013-08-09 22:00:00,
2013-08-09 15:05:00,63.9,59.0,29.97,WSW,254,10.0,12.0,84,0.00,,,0.00,831,Wunderground v.1.15,2013-08-09 22:05:00,
2013-08-09 15:15:00,64.3,58.7,29.97,WSW,242,10.0,11.0,82,0.00,,,0.00,821,Wunderground v.1.15,2013-08-09 22:15:00,
2013-08-09 15:20:00,64.4,58.8,29.97,WSW,245,9.0,9.0,82,0.00,,,0.00,814,Wunderground v.1.15,2013-08-09 22:20:00,
2013-08-09 15:30:00,64.3,58.7,29.97,WSW,242,10.0,10.0,82,0.00,,,0.00,796,Wunderground v.1.15,2013-08-09 22:30:00,
2013-08-09 15:40:00,64.4,58.8,29.97,SW,218,10.0,11.0,82,0.00,,,0.00,770,Wunderground v.1.15,2013-08-09 22:40:00,
2013-08-09 15:45:00,64.5,58.5,29.97,WSW,253,9.0,11.0,81,0.00,,,0.00,765,Wunderground v.1.15,2013-08-09 22:45:00,
2013-08-09 15:55:00,64.5,58.9,29.96,SW,232,10.0,12.0,82,0.00,,,0.00,742,Wunderground v.1.15,2013-08-09 22:55:00,
2013-08-09 16:00:00,64.5,58.5,29.96,WSW,255,9.0,9.0,81,0.00,,,0.00,729,Wunderground v.1.15,2013-08-09 23:00:00,
2013-08-09 16:10:00,64.4,58.1,29.96,WSW,249,9.0,9.0,80,0.00,,,0.00,708,Wunderground v.1.15,2013-08-09 23:10:00,
2013-08-09 16:15:00,64.5,58.2,29.96,WSW,255,9.0,11.0,80,0.00,,,0.00,698,Wunderground v.1.15,2013-08-09 23:15:00,
2013-08-09 16:25:00,63.6,57.7,29.96,WSW,255,11.0,14.0,81,0.00,,,0.00,671,Wunderground v.1.15,2013-08-09 23:25:00,
2013-08-09 16:35:00,63.7,57.8,29.96,WSW,247,10.0,11.0,81,0.00,,,0.00,645,Wunderground v.1.15,2013-08-09 23:35:00,
2013-08-09 16:40:00,63.9,58.0,29.96,West,272,10.0,12.0,81,0.00,,,0.00,633,Wunderground v.1.15,2013-08-09 23:40:00,
2013-08-09 16:50:00,63.9,58.3,29.96,West,266,10.0,13.0,82,0.00,,,0.00,606,Wunderground v.1.15,2013-08-09 23:50:00,
2013-08-09 16:55:00,63.8,58.2,29.96,WSW,255,10.0,13.0,82,0.00,,,0.00,589,Wunderground v.1.15,2013-08-09 23:55:00,
2013-08-09 17:05:00,63.5,58.2,29.96,West,266,11.0,12.0,83,0.00,,,0.00,559,Wunderground v.1.15,2013-08-10 00:05:00,
2013-08-09 17:10:00,63.3,58.0,29.96,West,267,11.0,11.0,83,0.00,,,0.00,543,Wunderground v.1.15,2013-08-10 00:10:00,
2013-08-09 17:15:00,63.3,58.0,29.96,WSW,249,11.0,13.0,83,0.00,,,0.00,529,Wunderground v.1.15,2013-08-10 00:15:00,
2013-08-09 17:25:00,63.1,57.9,29.97,WSW,248,11.0,11.0,83,0.00,,,0.00,503,Wunderground v.1.15,2013-08-10 00:25:00,
2013-08-09 17:35:00,63.3,58.0,29.96,West,262,8.0,11.0,83,0.00,,,0.00,469,Wunderground v.1.15,2013-08-10 00:35:00,
2013-08-09 17:40:00,63.2,57.9,29.96,WSW,254,8.0,8.0,83,0.00,,,0.00,454,Wunderground v.1.15,2013-08-10 00:40:00,
2013-08-09 17:50:00,63.0,57.8,29.96,West,264,9.0,9.0,83,0.00,,,0.00,418,Wunderground v.1.15,2013-08-10 00:50:00,
2013-08-09 18:00:00,62.9,58.0,29.96,West,260,9.0,9.0,84,0.00,,,0.00,390,Wunderground v.1.15,2013-08-10 01:00:00,
2013-08-09 18:05:00,62.8,57.9,29.96,West,259,8.0,9.0,84,0.00,,,0.00,376,Wunderground v.1.15,2013-08-10 01:05:00,
2013-08-09 18:15:00,62.9,58.0,29.96,WSW,237,9.0,10.0,84,0.00,,,0.00,338,Wunderground v.1.15,2013-08-10 01:15:00,
2013-08-09 18:25:00,62.8,57.9,29.96,West,276,8.0,12.0,84,0.00,,,0.00,302,Wunderground v.1.15,2013-08-10 01:25:00,
2013-08-09 18:30:00,62.9,58.0,29.96,West,264,9.0,9.0,84,0.00,,,0.00,287,Wunderground v.1.15,2013-08-10 01:30:00,
2013-08-09 18:40:00,62.5,57.6,29.96,WNW,283,9.0,11.0,84,0.00,,,0.00,250,Wunderground v.1.15,2013-08-10 01:40:00,
2013-08-09 18:45:00,62.3,57.7,29.97,WSW,254,10.0,11.0,85,0.00,,,0.00,229,Wunderground v.1.15,2013-08-10 01:45:00,
2013-08-09 18:55:00,62.6,57.4,29.97,WNW,286,9.0,13.0,83,0.00,,,0.00,195,Wunderground v.1.15,2013-08-10 01:55:00,
2013-08-09 19:00:00,62.5,57.6,29.97,West,262,9.0,10.0,84,0.00,,,0.00,176,Wunderground v.1.15,2013-08-10 02:00:00,
2013-08-09 19:10:00,62.0,57.1,29.97,West,268,9.0,9.0,84,0.00,,,0.00,137,Wunderground v.1.15,2013-08-10 02:10:00,
2013-08-09 19:15:00,61.6,57.0,29.97,West,271,10.0,12.0,85,0.00,,,0.00,118,Wunderground v.1.15,2013-08-10 02:15:00,
2013-08-09 19:25:00,61.6,57.4,29.98,West,260,9.0,10.0,86,0.00,,,0.00,79,Wunderground v.1.15,2013-08-10 02:25:00,
2013-08-09 19:30:00,61.6,57.4,29.98,West,272,8.0,10.0,86,0.00,,,0.00,63,Wunderground v.1.15,2013-08-10 02:30:00,
2013-08-09 19:40:00,61.5,56.9,29.98,West,280,8.0,9.0,85,0.00,,,0.00,39,Wunderground v.1.15,2013-08-10 02:40:00,
2013-08-09 19:45:00,61.2,57.0,29.98,West,281,7.0,11.0,86,0.00,,,0.00,26,Wunderground v.1.15,2013-08-10 02:45:00,
2013-08-09 19:55:00,60.9,56.7,29.99,West,276,9.0,11.0,86,0.00,,,0.00,12,Wunderground v.1.15,2013-08-10 02:55:00,
2013-08-09 20:05:00,60.4,56.5,29.98,WSW,249,10.0,12.0,87,0.00,,,0.00,5,Wunderground v.1.15,2013-08-10 03:05:00,
2013-08-09 20:15:00,60.1,56.5,29.99,West,270,10.0,10.0,88,0.00,,,0.00,0,Wunderground v.1.15,2013-08-10 03:15:00,
2013-08-09 20:20:00,59.9,56.6,29.99,West,266,9.0,9.0,89,0.00,,,0.00,0,Wunderground v.1.15,2013-08-10 03:20:00,
2013-08-09 20:30:00,60.1,56.8,29.99,West,267,8.0,11.0,89,0.00,,,0.00,0,Wunderground v.1.15,2013-08-10 03:30:00,
2013-08-09 20:35:00,60.2,56.9,29.99,WSW,245,7.0,11.0,89,0.00,,,0.00,0,Wunderground v.1.15,2013-08-10 03:35:00,
2013-08-09 20:45:00,59.9,56.6,29.99,West,272,7.0,12.0,89,0.00,,,0.00,0,Wunderground v.1.15,2013-08-10 03:45:00,
2013-08-09 20:55:00,59.6,56.4,29.99,WSW,243,7.0,9.0,89,0.00,,,0.00,0,Wunderground v.1.15,2013-08-10 03:55:00,
2013-08-09 21:05:00,59.5,56.6,30.00,West,260,8.0,8.0,90,0.00,,,0.00,0,Wunderground v.1.15,2013-08-10 04:05:00,
2013-08-09 21:10:00,59.5,56.6,30.00,West,262,8.0,8.0,90,0.00,,,0.00,0,Wunderground v.1.15,2013-08-10 04:10:00,
2013-08-09 21:15:00,59.5,56.6,30.00,WSW,240,7.0,8.0,90,0.00,,,0.00,0,Wunderground v.1.15,2013-08-10 04:15:00,
2013-08-09 21:20:00,59.4,56.5,30.00,WSW,251,7.0,9.0,90,0.00,,,0.00,0,Wunderground v.1.15,2013-08-10 04:20:00,
2013-08-09 21:25:00,59.5,56.6,30.00,WSW,240,6.0,9.0,90,0.00,,,0.00,0,Wunderground v.1.15,2013-08-10 04:25:00,
2013-08-09 21:30:00,59.4,56.5,30.01,WSW,252,6.0,6.0,90,0.00,,,0.00,0,Wunderground v.1.15,2013-08-10 04:30:00,
2013-08-09 21:40:00,59.5,56.6,30.01,West,259,5.0,5.0,90,0.00,,,0.00,0,Wunderground v.1.15,2013-08-10 04:40:00,
2013-08-09 21:50:00,59.5,56.6,30.01,West,274,6.0,6.0,90,0.00,,,0.00,0,Wunderground v.1.15,2013-08-10 04:50:00,
2013-08-09 21:55:00,59.5,56.6,30.01,West,275,6.0,6.0,90,0.00,,,0.00,0,Wunderground v.1.15,2013-08-10 04:55:00,
2013-08-09 22:05:00,59.3,56.7,30.02,West,264,5.0,5.0,91,0.00,,,0.00,0,Wunderground v.1.15,2013-08-10 05:05:00,
2013-08-09 22:10:00,59.3,56.7,30.02,WSW,253,5.0,5.0,91,0.00,,,0.00,0,Wunderground v.1.15,2013-08-10 05:10:00,
2013-08-09 22:20:00,59.2,56.6,30.02,WSW,250,5.0,7.0,91,0.00,,,0.00,0,Wunderground v.1.15,2013-08-10 05:20:00,
2013-08-09 22:25:00,59.1,56.5,30.02,WSW,247,5.0,7.0,91,0.00,,,0.00,0,Wunderground v.1.15,2013-08-10 05:25:00,
2013-08-09 22:35:00,58.9,56.3,30.02,WSW,253,6.0,7.0,91,0.00,,,0.00,0,Wunderground v.1.15,2013-08-10 05:35:00,
2013-08-09 22:40:00,58.8,56.2,30.02,WSW,251,6.0,6.0,91,0.00,,,0.00,0,Wunderground v.1.15,2013-08-10 05:40:00,
2013-08-09 22:45:00,58.9,56.3,30.02,WSW,249,5.0,6.0,91,0.00,,,0.00,0,Wunderground v.1.15,2013-08-10 05:45:00,
2013-08-09 22:55:00,58.9,56.3,30.02,WSW,256,6.0,6.0,91,0.00,,,0.00,0,Wunderground v.1.15,2013-08-10 05:55:00,
2013-08-09 23:05:00,58.8,56.2,30.02,WSW,247,6.0,8.0,91,0.00,,,0.00,0,Wunderground v.1.15,2013-08-10 06:05:00,
2013-08-09 23:10:00,58.7,56.1,30.02,WSW,240,5.0,6.0,91,0.00,,,0.00,0,Wunderground v.1.15,2013-08-10 06:10:00,
2013-08-09 23:15:00,58.8,56.2,30.02,WSW,242,4.0,6.0,91,0.00,,,0.00,0,Wunderground v.1.15,2013-08-10 06:15:00,
2013-08-09 23:25:00,58.8,56.2,30.02,WSW,241,3.0,4.0,91,0.00,,,0.00,0,Wunderground v.1.15,2013-08-10 06:25:00,
2013-08-09 23:35:00,58.8,56.2,30.02,WSW,242,3.0,4.0,91,0.00,,,0.00,0,Wunderground v.1.15,2013-08-10 06:35:00,
2013-08-09 23:40:00,58.8,56.2,30.03,WSW,239,2.0,4.0,91,0.00,,,0.00,0,Wunderground v.1.15,2013-08-10 06:40:00,
2013-08-09 23:50:00,58.9,56.3,30.03,SW,228,3.0,3.0,91,0.00,,,0.00,0,Wunderground v.1.15,2013-08-10 06:50:00,
2013-08-09 23:55:00,58.9,56.3,30.03,SW,228,3.0,4.0,91,0.00,,,0.00,0,Wunderground v.1.15,2013-08-10 06:55:00,